Cloud_Cover
58 34 5 5 4 0 0 0 0 0 0 0 0 0 5 2 1 94 5 4 5 5 5 21 6 14 35 70 78 60 35 63 6 66 100 91 100 100
5 5 5 0 0 0 0 0 0 1 2 0 4 2 0 4 2 18 5 5 5 58 5 6 15 43 47 94 100 100 100 100 96 16 54 94 100 100
3 0 0 0 0 0 0 0 0 5 87 1 0 0 5 2 0 4 5 5 5 81 92 62 5 5 26 42 45 99 100 100 98 82 80 91 100 100
0 0 0 0 0 0 0 5 5 5 5 5 5 5 4 4 5 5 5 16 7 6 7 7 5 5 22 56 9 8 100 48 100 100 100 100 100 96
0 0 0 0 0 5 5 5 5 12 78 100 8 5 35 6 5 8 30 6 5 5 5 53 99 100 90 100 100 79 31 94 100 100 100 100 96 88
0 0 0 2 5 5 5 40 100 100 100 86 100 77 5 11 90 96 12 3 4 5 3 94 82 5 96 85 64 49 34 100 100 100 100 89 100 67
1 0 4 5 32 80 100 100 100 90 89 100 98 98 99 100 95 9 5 5 4 14 95 1 5 5 5 5 30 5 21 100 100 100 100 87 99 100
1 5 5 33 61 96 93 100 100 100 100 100 100 83 14 54 100 100 36 100 91 74 19 28 66 16 63 43 76 100 100 100 100 100 100 100 100 100
5 5 6 93 58 5 5 96 100 100 100 100 78 13 100 80 100 95 100 100 100 79 92 98 49 80 46 26 100 99 97 54 88 90 94 49 100 100
5 5 12 14 13 100 96 100 81 93 20 5 84 100 100 100 100 100 98 89 94 94 100 100 68 91 100 100 100 100 100 100 100 100 100 100 100 100
5 70 87 89 91 100 100 100 95 42 5 12 99 100 59 99 100 100 100 100 100 100 59 85 100 100 100 100 100 100 100 100 100 89 93 100 100 97
60 93 95 100 100 100 100 100 100 5 55 100 5 0 2 29 98 100 100 100 100 100 39 100 91 94 100 100 100 100 100 100 100 100 100 100 100 100
92 73 56 81 100 100 100 100 100 100 97 6 78 100 99 100 100 100 100 100 100 100 83 100 100 99 100 97 100 100 100 100 100 98 100 100 100 100
97 68 60 99 100 100 100 100 100 97 6 77 95 100 100 93 95 93 99 100 100 100 100 100 100 100 100 100 80 99 100 100 100 100 100 100 100 100
100 68 100 96 100 62 48 100 98 83 97 99 100 97 100 95 96 100 100 100 100 100 100 100 100 100 73 91 86 94 100 100 100 100 100 100 100 100
69 100 46 46 33 12 14 66 85 100 100 100 100 100 100 100 100 100 100 100 100 100 100 100 100 98 100 62 95 96 100 100 100 100 100 100 100 100
100 23 5 5 32 72 86 100 100 100 100 100 100 100 100 100 100 100 100 100 100 100 100 100 99 89 74 92 100 99 100 100 100 100 100 100 100 100
93 16 34 95 99 100 100 100 100 100 100 100 100 100 100 100 100 100 100 100 100 100 100 100 99 96 96 98 100 100 100 100 100 100 100 100 100 100
25 70 100 100 100 100 100 100 100 100 100 100 100 100 100 100 100 100 100 100 100 100 100 100 99 100 100 100 100 100 100 100 100 100 100 100 100 100
79 100 100 100 100 100 100 100 100 100 100 100 100 100 100 100 100 100 100 100 100 100 100 100 100 100 100 100 100 100 100 100 100 100 100 100 100 100
100 100 100 100 100 100 100 100 100 100 100 100 100 100 100 100 100 100 100 100 100 100 100 100 100 100 100 100 100 100 100 100 100 100 100 100 100 100
100 100 100 100 100 100 100 100 100 100 100 100 100 100 100 100 100 100 100 100 100 100 100 100 100 100 100 100 100 100 100 100 100 100 100 100 100 100
100 100 100 100 100 100 100 100 100 100 100 100 100 100 100 100 100 100 100 100 100 100 100 100 100 100 100 100 100 100 100 100 100 99 100 100 100 100